USA 157 (MILSTAR-2 2)

Last updated on Oct. 31, 2020, 5:53 a.m. UTC

1 26715U 01009A   20304.89170427 -.00000200  00000-0  00000-0 0  9991
2 26715   9.4554  29.9082 0003340 216.6649 262.0715  1.00401299 12343
UTC
Height (km)
Latitude
Longitude
Inclination
Orbital Period
UTC large
Height (km)
Speed (km/s)
/
Latitude / Longitude
Inclination (degrees)
Orbital Period (minutes)
Azimuth
Elevation
Range (km)
Doppler Factor
iOS Compass Heading
iOS Angle

Next 30 passes for location: Hong Kong

Rise time Rise Azimuth (degrees) Set time Set Azimuth (degrees) Duration Max altitude (degrees)

No matching passes for this satellites